Regional Weather Roundup
Issued by NWS

Home | Current Version | Previous Version | Graphics & Text | Print | Product List | Glossary On
Versions: 1 2 3 4 5 6 7 8 9 10 11 12 13 14 15 16 17 18 19 20 21 22 23 24 25 26 27 28
000
ASUS43 KDMX 310507
RWRIA

WEATHER ROUNDUP FOR IOWA
NATIONAL WEATHER SERVICE DES MOINES IA
1200 AM CDT FRI OCT 31 2014

NOTE: "FAIR" INDICATES FEW OR NO CLOUDS BELOW 12,000 FEET WITH NO
SIGNIFICANT WEATHER AND/OR OBSTRUCTIONS TO VISIBILITY.

* - THESE STATIONS ARE NOT NWS STATIONS...THUS NOT UNDER NWS
QUALITY CONTROL.  THEY ALSO DO NOT REPORT WEATHER SUCH
AS PRECIPITATION OR FOG.

IAZ001>003-012>014-020>022-031>034-043>046-310600-
   NORTHWEST IOWA

CITY           SKY/WX    TMP DP  RH WIND       PRES   REMARKS
CARROLL *      CLOUDY    39  30  70 N25G33    30.34R WCI  28
CHEROKEE *     CLOUDY    34  23  64 N17G25    30.42R WCI  23
DENISON *      CLOUDY    37  28  70 N20G26    30.37R WCI  27
LE MARS *      CLOUDY    36  23  60 N18G30    30.46R WCI  25
ORANGE CITY *  MOCLDY    34  21  60 N18G28    30.44R WCI  23
SHELDON *      CLOUDY    34  23  64 N20G28    30.42R WCI  22
SIOUX CITY     CLOUDY    37  25  61 N23G35    30.45R WCI  26
SPENCER        CLOUDY    35  23  61 N22G36    30.39R WCI  23
STORM LAKE *   CLOUDY    34  25  69 N24G38    30.39R WCI  21
$$

IAZ055>058-069>071-079>083-090>094-310600-
   SOUTHWEST IOWA

CITY           SKY/WX    TMP DP  RH WIND       PRES   REMARKS
ATLANTIC *     CLOUDY    41  32  70 N24G33    30.33R
AUDUBON *      CLOUDY    39  28  65 N25G32    30.35R WCI  28
CLARINDA *     CLOUDY    48  39  71 N17G29    30.30R
COUNCIL BLFS * CLOUDY    41  34  75 N15G26    30.35R
CRESTON *      CLOUDY    45  37  76 N22G28    30.26R
HARLAN  *      CLOUDY    39  32  75 N21G29    30.39R WCI  29
LAMONI         LGT RAIN  49  40  71 N18G28    30.22R
RED OAK *      CLOUDY    45  37  76 N18G35    30.33R
SHENANDOAH *   CLOUDY    46  39  76 N17G32    30.32R
$$

IAZ047>049-059>061-072>074-084-310600-
   CENTRAL IOWA

CITY           SKY/WX    TMP DP  RH WIND       PRES   REMARKS
AMES           MOCLDY    42  31  64 N25G35    30.27R
ANKENY *       MOCLDY    45  32  61 N16G28    30.26R
CHARITON *     CLOUDY    48  39  71 N14G29    30.21R
DES MOINES     MOCLDY    47  34  60 N21G26    30.26R
GRINNELL*      CLOUDY    46  37  71 NW14G21   30.21R
KNOXVILLE *    CLOUDY    48  37  66 N21       30.19R
MARSHALLTOWN   CLOUDY    45  32  60 N22G30    30.22R
PELLA *        CLOUDY    49  38  67 N15G21    30.21S
PERRY *        CLOUDY    41  32  70 N23G30    30.31R
$$

IAZ004>006-015-016-023>025-035-036-310600-
   NORTH CENTRAL IOWA

CITY           SKY/WX    TMP DP  RH WIND       PRES   REMARKS
ALGONA *       CLOUDY    37  23  56 N23G32    30.34R WCI  26
CLARION *      CLOUDY    39  27  60 N22G32    30.30R WCI  29
ESTHERVILLE    PTCLDY    33  19  56 N24G38    30.37R WCI  20
FORT DODGE *   CLOUDY    39  27  60 N12G22    30.33R WCI  32
MASON CITY     CLOUDY    38  24  57 N24G35    30.29R WCI  27
FOREST CITY *  CLOUDY    37  28  70 N17G29    30.30R WCI  28
IOWA FALLS *   CLOUDY    41  30  65 NW20G32   30.27R
$$

IAZ007>011-017>019-026>030-037>042-050>054-066-310600-
   NORTHEAST IOWA

CITY           SKY/WX    TMP DP  RH WIND       PRES   REMARKS
CEDAR RAPIDS   CLOUDY    47  37  68 N16G26    30.15R
CHARLES CITY * CLOUDY    41  27  56 N25G32    30.24R
CLINTON *      CLOUDY    46  37  71 NW8       30.13S
DECORAH *      CLOUDY    39  25  56 N13G18    30.19R WCI  32
DUBUQUE        CLOUDY    45  36  70 N18G29    30.11S
MONTICELLO *   CLOUDY    46  37  71 NW16      30.13S
OELWEIN *      CLOUDY    43  32  65 N17       30.19R
WATERLOO       CLOUDY    44  31  60 N18G26    30.21R
$$

IAZ064-065-067-068-078-310600-
   EAST CENTRAL IOWA

CITY           SKY/WX    TMP DP  RH WIND       PRES   REMARKS
DAVENPORT      CLOUDY    47  37  68 NW9       30.12S
IOWA CITY      CLOUDY    50  38  63 NW15G22   30.16R
MT. PLEASANT * CLOUDY    46  41  81 NW3       30.14R
MUSCATINE *    CLOUDY    48  39  71 NW5       30.14R
QUAD CITIES    CLOUDY    46  39  76 W3        30.10F
$$

IAZ062-063-075>077-085>089-095>099-310600-
   SOUTHEAST IOWA

CITY           SKY/WX    TMP DP  RH WIND       PRES   REMARKS
BURLINGTON     CLOUDY    47  41  80 N5        30.12R
FAIRFIELD *    CLOUDY    50  37  62 N14       30.15R
FORT MADISON * CLOUDY    48  45  87 CALM      30.13R
KEOKUK *       CLOUDY    48  43  81 N3        30.11S
OSKALOOSA *    CLOUDY    48  37  66 N20       30.18R
CENTERVILLE *  MOCLDY    50  39  66 N9G22     30.18R
OTTUMWA        LGT RAIN  49  36  61 N20       30.17R
WASHINGTON *   CLOUDY    48  41  76 NW9       30.15R
$$

ABBREVIATIONS USED IN REMARKS
   TC - TEMPERATURES IN CELSIUS
  WCI - WIND CHILL INDEX
   HX - HEAT INDEX
  VSB - VISIBILITY
$$




USA.gov is the U.S. government's official web portal to all federal, state and local government web resources and services.